Вернуться в каталог

STARLINK-30542

АктивенСвязьVLEO
NORAD 58041·PAYLOAD·🇺🇸 United States

Запущен Oct 9, 2023 с Vandenberg Space Force Base

Loading…

Ближайшие Пролёты (ближайшие 24 часа)

TLE

СвежийSource: CelesTrak SupGP

Эпоха: Sep 14, 2026, 20:43 UTC

1 58041C 23156P   26257.86368056  .00029877  00000+0  88294-3 0  2572
2 58041  53.1565 277.7124 0001194  94.3614 117.5894 15.34367810    11

Отслеживайте STARLINK-30542 в реальном времени с AllMySat

Download on the App Store